| time (UTC) | temp F | wind direction | speed knots | gust knots | rain 1hr in | rain 24hr in | rain mn in | humidity % | barometer mb |
| 20260906164518 | 69 | 290 | 0.9 | 3.5 | 0.00 | 0.00 | 0.00 | 67 | 1015.0 |
| 20260906163020 | 69 | 310 | 0.9 | 2.6 | 0.00 | 0.00 | 0.00 | 70 | 1015.2 |
| 20260906161513 | 66 | 169 | 0.0 | 1.7 | 0.00 | 0.00 | 0.00 | 77 | 1015.3 |
| 20260906160028 | 67 | 168 | 0.9 | 1.7 | 0.00 | 0.00 | 0.00 | 75 | 1015.3 |
| 20260906154509 | 65 | 146 | 0.0 | 2.6 | 0.00 | 0.00 | 0.00 | 77 | 1015.4 |
| 20260906153012 | 65 | 119 | 0.0 | 2.6 | 0.00 | 0.00 | 0.00 | 78 | 1015.5 |
| 20260906151507 | 65 | 228 | 0.0 | 2.6 | 0.00 | 0.00 | 0.00 | 79 | 1015.5 |
| 20260906150010 | 64 | 229 | 0.0 | 1.7 | 0.00 | 0.00 | 0.00 | 80 | 1015.5 |
| 20260906144502 | 64 | 232 | 0.9 | 1.7 | 0.00 | 0.00 | 0.00 | 81 | 1015.4 |
| 20260906143114 | 63 | 261 | 0.9 | 2.6 | 0.00 | 0.00 | 0.00 | 82 | 1015.3 |
| 20260906141558 | 63 | 191 | 0.0 | 1.7 | 0.00 | 0.00 | 0.00 | 83 | 1015.2 |
| 20260906140057 | 62 | 165 | 0.0 | 2.6 | 0.00 | 0.00 | 0.00 | 86 | 1015.1 |
| 20260906134554 | 61 | 126 | 0.0 | 1.7 | 0.00 | 0.00 | 0.00 | 87 | 1015.1 |
| 20260906133058 | 61 | 109 | 0.0 | 0.9 | 0.00 | 0.00 | 0.00 | 87 | 1014.9 |
| 20260906131556 | 61 | 146 | 0.9 | 1.7 | 0.00 | 0.00 | 0.00 | 89 | 1014.9 |
| 20260906130049 | 60 | 292 | 0.9 | 2.6 | 0.00 | 0.00 | 0.00 | 89 | 1014.9 |
| 20260906124547 | 60 | 215 | 0.0 | 0.9 | 0.00 | 0.00 | 0.00 | 91 | 1014.8 |
| 20260906123043 | 60 | 214 | 0.0 | 1.7 | 0.00 | 0.00 | 0.00 | 91 | 1014.5 |
| 20260906121544 | 60 | 213 | 0.0 | 1.7 | 0.00 | 0.00 | 0.00 | 92 | 1014.5 |
| 20260906120036 | 59 | 213 | 0.9 | 1.7 | 0.00 | 0.00 | 0.00 | 93 | 1014.3 |
| 20260906114536 | 59 | 213 | 0.0 | 0.0 | 0.00 | 0.00 | 0.00 | 94 | 1014.2 |
| 20260906113043 | 58 | 213 | 0.0 | 0.0 | 0.00 | 0.00 | 0.00 | 94 | 1014.2 |
| 20260906111536 | 58 | 213 | 0.0 | 0.9 | 0.00 | 0.00 | 0.00 | 93 | 1014.0 |
| 20260906110030 | 58 | 213 | 0.0 | 1.7 | 0.00 | 0.00 | 0.00 | 95 | 1013.7 |
| 20260906104528 | 57 | 213 | 0.0 | 0.9 | 0.00 | 0.00 | 0.00 | 94 | 1013.6 |
| 20260906103027 | 56 | 213 | 0.0 | 0.9 | 0.00 | 0.00 | 0.00 | 93 | 1013.3 |
| 20260906101526 | 56 | 213 | 0.0 | 0.9 | 0.00 | 0.00 | 0.00 | 93 | 1013.3 |
| 20260906100024 | 56 | 213 | 0.0 | 0.0 | 0.00 | 0.00 | 0.00 | 93 | 1013.1 |
| 20260906094531 | 56 | 213 | 0.0 | 0.9 | 0.00 | 0.00 | 0.00 | 93 | 1012.9 |
| 20260906093020 | 56 | 213 | 0.0 | 0.0 | 0.00 | 0.00 | 0.00 | 92 | 1012.8 |
| 20260906091527 | 56 | 213 | 0.0 | 0.0 | 0.00 | 0.00 | 0.00 | 92 | 1012.6 |
| 20260906090016 | 56 | 213 | 0.0 | 0.9 | 0.00 | 0.00 | 0.00 | 92 | 1012.6 |
| 20260906084523 | 56 | 213 | 0.0 | 0.0 | 0.00 | 0.00 | 0.00 | 92 | 1012.5 |
| 20260906083021 | 57 | 213 | 0.0 | 0.9 | 0.00 | 0.00 | 0.00 | 92 | 1012.4 |
| 20260906081530 | 57 | 213 | 0.0 | 0.0 | 0.00 | 0.00 | 0.00 | 92 | 1012.4 |
| 20260906080011 | 57 | 213 | 0.0 | 0.0 | 0.00 | 0.00 | 0.00 | 92 | 1012.3 |
| 20260906074511 | 57 | 213 | 0.0 | 0.0 | 0.00 | 0.00 | 0.00 | 92 | 1012.4 |
| 20260906073009 | 57 | 214 | 0.0 | 0.0 | 0.00 | 0.00 | 0.00 | 92 | 1012.3 |
| 20260906071508 | 58 | 214 | 0.0 | 0.0 | 0.00 | 0.00 | 0.00 | 92 | 1012.1 |
| 20260906070009 | 58 | 214 | 0.0 | 0.0 | 0.00 | 0.00 | 0.00 | 92 | 1012.1 |
| 20260906064505 | 58 | 214 | 0.0 | 0.9 | 0.00 | 0.00 | 0.00 | 92 | 1012.2 |
| 20260906063005 | 58 | 214 | 0.0 | 0.0 | 0.00 | 0.00 | 0.00 | 92 | 1012.2 |
| 20260906061504 | 58 | 214 | 0.0 | 0.0 | 0.00 | 0.00 | 0.00 | 91 | 1012.4 |
| 20260906060005 | 58 | 214 | 0.0 | 0.0 | 0.00 | 0.00 | 0.00 | 91 | 1012.2 |
| 20260906054501 | 58 | 214 | 0.0 | 0.0 | 0.00 | 0.00 | 0.00 | 91 | 1012.4 |
| 20260906053100 | 58 | 214 | 0.0 | 0.0 | 0.00 | 0.00 | 0.00 | 91 | 1012.4 |
| 20260906051559 | 58 | 214 | 0.0 | 0.9 | 0.00 | 0.00 | 0.00 | 91 | 1012.4 |
| 20260906050121 | 59 | 214 | 0.0 | 0.9 | 0.00 | 0.00 | 0.00 | 91 | 1012.5 |
| 20260906044557 | 59 | 214 | 0.0 | 0.0 | 0.00 | 0.00 | 0.00 | 91 | 1012.5 |
| 20260906043108 | 59 | 214 | 0.0 | 0.0 | 0.00 | 0.00 | 0.00 | 90 | 1012.5 |
| 20260906041555 | 59 | 214 | 0.0 | 0.9 | 0.00 | 0.00 | 0.00 | 90 | 1012.5 |
| 20260906040052 | 59 | 226 | 0.0 | 0.0 | 0.00 | 0.00 | 0.00 | 89 | 1012.3 |
| 20260906034551 | 59 | 226 | 0.0 | 0.0 | 0.00 | 0.00 | 0.00 | 90 | 1012.4 |
| 20260906033050 | 59 | 226 | 0.0 | 0.0 | 0.00 | 0.00 | 0.00 | 89 | 1012.3 |
| 20260906031549 | 59 | 226 | 0.0 | 0.0 | 0.00 | 0.00 | 0.00 | 89 | 1012.2 |
| 20260906030050 | 60 | 226 | 0.0 | 0.0 | 0.00 | 0.00 | 0.00 | 88 | 1012.2 |
| 20260906024545 | 60 | 226 | 0.0 | 0.0 | 0.00 | 0.00 | 0.00 | 88 | 1012.1 |
| 20260906023045 | 60 | 226 | 0.0 | 0.0 | 0.00 | 0.00 | 0.00 | 88 | 1012.0 |
| 20260906021604 | 61 | 226 | 0.0 | 0.0 | 0.00 | 0.00 | 0.00 | 87 | 1012.2 |
| 20260906020043 | 61 | 226 | 0.0 | 0.9 | 0.00 | 0.00 | 0.00 | 87 | 1012.1 |
| 20260906014543 | 61 | 229 | 0.0 | 0.0 | 0.00 | 0.00 | 0.00 | 86 | 1012.0 |
| 20260906013042 | 61 | 229 | 0.0 | 0.9 | 0.00 | 0.00 | 0.00 | 86 | 1011.9 |
| 20260906011540 | 62 | 229 | 0.0 | 0.9 | 0.00 | 0.00 | 0.00 | 85 | 1011.8 |
| 20260906010041 | 62 | 229 | 0.0 | 0.9 | 0.00 | 0.00 | 0.00 | 84 | 1011.5 |
| 20260906004541 | 63 | 229 | 0.0 | 0.0 | 0.00 | 0.00 | 0.00 | 83 | 1011.4 |
| 20260906003036 | 63 | 229 | 0.0 | 0.0 | 0.00 | 0.00 | 0.00 | 82 | 1011.3 |
| 20260906001535 | 64 | 229 | 0.0 | 0.0 | 0.00 | 0.00 | 0.00 | 81 | 1011.2 |
| 20260906000034 | 65 | 229 | 0.0 | 0.0 | 0.00 | 0.00 | 0.00 | 79 | 1011.0 |
| 20260905234534 | 66 | 229 | 0.0 | 0.9 | 0.00 | 0.00 | 0.00 | 78 | 1010.9 |
| 20260905233033 | 66 | 229 | 0.0 | 0.9 | 0.00 | 0.00 | 0.00 | 76 | 1010.9 |
| 20260905231533 | 67 | 229 | 0.0 | 1.7 | 0.00 | 0.00 | 0.00 | 76 | 1010.7 |
| 20260905230032 | 68 | 229 | 0.0 | 1.7 | 0.00 | 0.00 | 0.00 | 76 | 1010.7 |
| 20260905224535 | 68 | 229 | 0.0 | 0.9 | 0.00 | 0.00 | 0.00 | 73 | 1010.7 |
| 20260905223035 | 68 | 229 | 0.0 | 1.7 | 0.00 | 0.00 | 0.00 | 73 | 1010.6 |
| 20260905221531 | 69 | 229 | 0.9 | 1.7 | 0.00 | 0.00 | 0.00 | 72 | 1010.7 |
| 20260905220030 | 70 | 228 | 0.0 | 1.7 | 0.00 | 0.00 | 0.00 | 70 | 1010.5 |
| 20260905214529 | 70 | 252 | 0.0 | 2.6 | 0.00 | 0.00 | 0.00 | 67 | 1010.5 |
| 20260905213029 | 71 | 234 | 0.9 | 2.6 | 0.00 | 0.00 | 0.00 | 67 | 1010.3 |
| 20260905211528 | 71 | 298 | 0.0 | 2.6 | 0.00 | 0.00 | 0.00 | 65 | 1010.4 |
| 20260905210036 | 72 | 308 | 0.9 | 3.5 | 0.00 | 0.00 | 0.00 | 61 | 1010.1 |
| 20260905204528 | 72 | 319 | 0.9 | 3.5 | 0.00 | 0.00 | 0.00 | 62 | 1010.1 |
| 20260905203027 | 72 | 338 | 0.9 | 1.7 | 0.00 | 0.00 | 0.00 | 62 | 1010.0 |
| 20260905201535 | 72 | 302 | 0.9 | 4.3 | 0.00 | 0.00 | 0.00 | 59 | 1010.1 |
| 20260905200038 | 73 | 323 | 0.9 | 3.5 | 0.00 | 0.00 | 0.00 | 59 | 1010.0 |
| 20260905194525 | 73 | 276 | 0.9 | 3.5 | 0.00 | 0.00 | 0.00 | 58 | 1009.9 |
| 20260905193029 | 73 | 297 | 0.9 | 3.5 | 0.00 | 0.00 | 0.00 | 58 | 1010.0 |
| 20260905191525 | 73 | 185 | 0.9 | 3.5 | 0.00 | 0.00 | 0.00 | 59 | 1010.0 |
| 20260905190024 | 73 | 278 | 1.7 | 3.5 | 0.00 | 0.00 | 0.00 | 57 | 1010.1 |
| 20260905184531 | 73 | 169 | 1.7 | 3.5 | 0.00 | 0.00 | 0.00 | 57 | 1010.2 |
| 20260905183027 | 72 | 113 | 0.0 | 2.6 | 0.00 | 0.00 | 0.00 | 63 | 1010.3 |
| 20260905181523 | 72 | 302 | 1.7 | 3.5 | 0.00 | 0.00 | 0.00 | 61 | 1010.3 |
| 20260905180021 | 73 | 62 | 0.0 | 2.6 | 0.00 | 0.00 | 0.00 | 59 | 1010.5 |
| 20260905174530 | 74 | 154 | 0.9 | 4.3 | 0.00 | 0.00 | 0.00 | 57 | 1010.4 |
| 20260905173024 | 73 | 318 | 0.0 | 1.7 | 0.00 | 0.00 | 0.00 | 60 | 1010.4 |
| 20260905171518 | 73 | 294 | 0.9 | 3.5 | 0.00 | 0.00 | 0.00 | 61 | 1010.5 |
| 20260905170016 | 73 | 250 | 1.7 | 3.5 | 0.00 | 0.00 | 0.00 | 61 | 1010.5 |